User: anonymous   Login
Location: Summit Observatory
(39.5293°N, 75.7290°W)
Time: 19:58:49
(UTC-05:00)
Language:

Gurwin Techsat 1B - Orbit

View from above orbital plane
View from above orbital plane
View from above satellite
View from above satellite

Ground track
Ground track

The orbit data is extracted from the following two-line orbital elements,

1 25397U 98043D   15060.22175663  .00000106  00000-0  65131-4 0  9991
2 25397 098.5070 014.1237 0000340 348.9941 114.9329 14.23520849864432
Epoch (UTC): 01 March 2015 05:19:19
Eccentricity: 0.0000340
inclination: 98.5070°
perigee height: 813 km
apogee height: 814 km
right ascension of ascending node: 14.1237°
argument of perigee: 348.9941°
revolutions per day: 14.23520849
mean anomaly at epoch: 114.9329°
orbit number at epoch: 86443

The dashed part of the orbit path shows where the satellite is in the earth's shadow,  

DLR